Flag for Poland Weather past 2 weeks in Lidzbark Warmiński, Poland

Now
50 °F

Overcast.


Feels Like: 49 °F
Forecast: 44 / 56 °F
Wind: 3 mph from South

Location: Ketrzyn

Current Time: Oct 21, 2014 at 7:41:06 PM

Latest Report: Oct 21, 2014 at 7:00 PM


Visibility: 6 mi

Pressure: 29.68 "Hg

Humidity: 87%

Dew point: 46 °F

Location of Lidzbark WarmińskiLocation

Historic Weather in Lidzbark Warmiński — Graph

°F

Lidzbark Warmiński temperature yesterday

Maximum temperature yesterday: 59 °F (at 1:00 AM)
Minimum temperature yesterday: 52 °F (at 11:00 PM)
Average temperature yesterday: 56 °F

Past Weeks' High & Low Weather Summary

 TemperatureHumidityPressure
High71 °F (Oct 9, 3:00 PM)100% (Oct 13, 7:00 AM)30.36 "Hg (Oct 13, 7:00 AM)
Low35 °F (Oct 18, 7:00 AM)46% (Oct 11, 2:00 PM)29.63 "Hg (Oct 14, 5:00 PM)
Average54 °F83%29.92 "Hg
* Reported Oct 6 6:00 PM — Oct 21 6:00 PM, Lidzbark Warmiński, Weather by CustomWeather, © 2014

Note: Actual official high and low records may vary slightly from our data, if they occured in-between our weather recording intervals... More about our weather records

Advertising

Lidzbark Warmiński weather history for previous 24 hours

 ConditionsComfort  
Time TempWeatherWind HumidityBarometerVisibility
6:00 PM
Oct 21
50 °FPassing clouds.1 mph83%29.68 "Hg6 mi
5:00 PM53 °FScattered clouds.2 mph71%29.68 "Hg9 mi
4:00 PM56 °FScattered clouds.3 mph63%29.68 "Hg12 mi
3:00 PM57 °FPartly sunny.7 mph62%29.68 "Hg12 mi
2:00 PM56 °FPartly sunny.5 mph72%29.69 "Hg12 mi
1:00 PM55 °FPartly sunny.6 mph77%29.70 "Hg12 mi
12:00 PM53 °FOvercast.5 mph88%29.72 "Hg9 mi
11:00 AM51 °FSprinkles. Overcast.3 mph92%29.72 "Hg6 mi
10:00 AM51 °FOvercast.3 mph93%29.71 "Hg6 mi
9:00 AM51 °FSprinkles. Overcast.5 mph93%29.70 "Hg4 mi
8:00 AM51 °FOvercast.5 mph91%29.70 "Hg6 mi
7:00 AM51 °FSprinkles. Low clouds.5 mph90%29.68 "Hg4 mi
6:00 AM51 °FLow clouds.6 mph88%29.68 "Hg6 mi
5:00 AM51 °FOvercast.5 mph90%29.68 "Hg6 mi
4:00 AM51 °FOvercast.7 mph91%29.68 "Hg6 mi
3:00 AM52 °FOvercast.8 mph88%29.68 "Hg6 mi
2:00 AM52 °FOvercast.7 mph87%29.68 "Hg8 mi
1:00 AM51 °FOvercast.7 mph87%29.68 "Hg9 mi
12:00 AM52 °FOvercast.7 mph86%29.68 "Hg9 mi
11:00 PM
Oct 20
52 °FOvercast.7 mph84%29.68 "Hg10 mi
10:00 PM53 °FOvercast.8 mph83%29.68 "Hg11 mi
9:00 PM53 °FOvercast.7 mph85%29.68 "Hg11 mi
8:00 PM53 °FPassing clouds.6 mph87%29.68 "Hg11 mi
7:00 PM53 °FPassing clouds.6 mph86%29.67 "Hg14 mi
Weather by CustomWeather, © 2014

See weather overviewHow to use our weather pages